Content
SEND FEEDBACK

Daily
Averages
Monthly
Summary
United States of America

PYGA BEACH, GUAM


Home > North America > United States > Guam
Elevation: 6 meters     Latitude: 13 17N     Longitude: 144 39E

WEATHER
 
SELECT A DAY
Number of Records: 357,231;   Date Range: 1/1/95 - 12/25/14
 
SHARE

PRINT THIS DATA

[ ← Previous Day ]
WEATHER ALMANAC - 19 FEBRUARY, 2013
[ Next Day → ]
[ °F ]   °C
Weather ElementAverageHighLow
Temperature25.8 °C28.2 °C (11:55 am)24 °C (6:01 pm)
Dewpoint22.9 °C24 °C (9:37 am)21.5 °C (10:55 pm)
Humidity84.2 %94 % (6:01 pm)70 % (11:57 am)
Barometer1009.8 hPa1011.5 hPa (8:55 am)1008.1 hPa (3:20 pm)
Wind Speed31.2 km/h48.1 km/h (12:33 pm)
Wind Gust57.5 km/h (12:33 pm)
Weather ElementAverage
Visibility15.3 km
Wind DirectionENE (74.5 °)

Weather ElementTotal
Precipitation---
Cooling Degree Days7.8 (Base 18.3)
Growing Degree Days16.1 (Base 10)
Averaged from 138 records on 19 February, 2013
WEATHER CONDITIONS BREAKOUT
WIND DIRECTION BREAKOUT
WEATHER BY HOUR - 19 FEBRUARY, 2013
[ °F ]   °C
Local TimeTemperatureDewpointHumidityBarometerVisibilityWind DirectionWind SpeedGust SpeedPrecipitationEventsConditions
12:20 AM26 °C23 °C83 %1010.2 hPa16.1 kmEast (80°)27.8 km/h37 km/hMostly Cloudy
12:30 AM25 °C23 °C89 %1010.2 hPa16.1 kmEast (80°)27.8 km/hLight Drizzle
12:31 AM25 °C23 °C89 %1010.2 hPa16.1 kmENE (70°)29.6 km/hLight Drizzle
12:37 AM25 °C23 °C89 %1010.2 hPa16.1 kmENE (70°)33.3 km/h40.7 km/hLight Drizzle
12:39 AM25 °C23 °C89 %1010.2 hPa16.1 kmENE (70°)27.8 km/h40.7 km/hMostly Cloudy
12:43 AM25 °C23 °C89 %1010.2 hPa16.1 kmENE (70°)33.3 km/h42.6 km/hMostly Cloudy
12:55 AM25.1 °C22.9 °C88 %1010.2 hPa16.1 kmEast (80°)37 km/h42.6 km/h0 mmMostly Cloudy
12:59 AM25 °C23 °C89 %1010.2 hPa16.1 kmEast (80°)29.6 km/h42.6 km/hMostly Cloudy
1:02 AM25 °C23 °C89 %1010.2 hPa16.1 kmEast (80°)29.6 km/h42.6 km/hMostly Cloudy
1:12 AM25 °C23 °C89 %1010.2 hPa16.1 kmEast (80°)31.5 km/h44.4 km/hMostly Cloudy
1:55 AM25.2 °C23.1 °C88 %1009.5 hPa16.1 kmENE (70°)33.3 km/hScattered Clouds
1:59 AM25 °C23 °C89 %1009.5 hPa16.1 kmENE (70°)29.6 km/hMostly Cloudy
2:08 AM25 °C23 °C89 %1009.5 hPa16.1 kmEast (80°)31.5 km/hMostly Cloudy
2:28 AM25 °C23 °C89 %1009.5 hPa16.1 kmEast (80°)24.1 km/h37 km/hMostly Cloudy
2:30 AM25 °C23 °C89 %1009.5 hPa16.1 kmENE (70°)27.8 km/hMostly Cloudy
2:31 AM25 °C23 °C89 %1009.5 hPa16.1 kmEast (80°)29.6 km/hMostly Cloudy
2:35 AM25 °C23 °C89 %1009.5 hPa16.1 kmENE (70°)27.8 km/hMostly Cloudy
2:37 AM25 °C23 °C89 %1009.5 hPa16.1 kmENE (70°)27.8 km/hMostly Cloudy
2:38 AM25 °C23 °C89 %1009.5 hPa16.1 kmENE (70°)29.6 km/hMostly Cloudy
2:55 AM25.3 °C23.2 °C88 %1009.1 hPa16.1 kmENE (70°)27.8 km/hMostly Cloudy
3:11 AM25 °C23 °C89 %1009.1 hPa16.1 kmENE (70°)29.6 km/h46.3 km/hMostly Cloudy
3:40 AM25 °C22 °C83 %1008.8 hPa16.1 kmEast (80°)29.6 km/hScattered Clouds
3:43 AM25 °C23 °C89 %1008.8 hPa16.1 kmEast (80°)33.3 km/hMostly Cloudy
3:45 AM25 °C23 °C89 %1008.8 hPa16.1 kmEast (80°)35.2 km/h44.4 km/hScattered Clouds
3:46 AM25 °C23 °C89 %1008.8 hPa16.1 kmENE (70°)33.3 km/h44.4 km/hMostly Cloudy
3:55 AM25.5 °C22.4 °C83 %1008.8 hPa16.1 kmEast (80°)38.9 km/h48.1 km/hMostly Cloudy
4:22 AM26 °C22 °C78 %1008.8 hPa16.1 kmEast (80°)31.5 km/h53.8 km/hMostly Cloudy
4:28 AM26 °C22 °C78 %1008.8 hPa16.1 kmEast (80°)37 km/h53.8 km/hMostly Cloudy
4:42 AM26 °C22 °C78 %1008.8 hPa16.1 kmEast (80°)35.2 km/hMostly Cloudy
4:50 AM25 °C23 °C89 %1008.8 hPa16.1 kmENE (70°)29.6 km/h42.6 km/hMostly Cloudy
4:55 AM25.4 °C22.3 °C83 %1008.8 hPa16.1 kmENE (70°)35.2 km/h42.6 km/hMostly Cloudy
4:59 AM25 °C22 °C83 %1008.8 hPa16.1 kmENE (70°)31.5 km/h42.6 km/hMostly Cloudy
5:01 AM25 °C22 °C83 %1008.8 hPa16.1 kmENE (70°)38.9 km/h46.3 km/hMostly Cloudy
5:04 AM26 °C22 °C78 %1008.8 hPa16.1 kmENE (70°)31.5 km/h46.3 km/hMostly Cloudy
5:07 AM26 °C22 °C78 %1008.8 hPa16.1 kmENE (70°)31.5 km/h46.3 km/hMostly Cloudy
5:55 AM25.5 °C21.7 °C79 %1009.5 hPa16.1 kmEast (80°)33.3 km/h42.6 km/hMostly Cloudy
6:09 AM25 °C22 °C83 %1009.5 hPa16.1 kmENE (70°)31.5 km/h40.7 km/hMostly Cloudy
6:11 AM25 °C22 °C83 %1009.5 hPa16.1 kmENE (70°)29.6 km/h40.7 km/hMostly Cloudy
6:19 AM25 °C22 °C83 %1009.5 hPa16.1 kmENE (70°)35.2 km/h46.3 km/hMostly Cloudy
6:55 AM25.5 °C22 °C81 %1010.2 hPa16.1 kmENE (70°)38.9 km/h46.3 km/hMostly Cloudy
7:55 AM26 °C22.4 °C80 %1010.8 hPa16.1 kmENE (70°)27.8 km/h46.3 km/hMostly Cloudy
8:02 AM26 °C23 °C83 %1011.2 hPa16.1 kmENE (70°)29.6 km/hMostly Cloudy
8:03 AM26 °C23 °C83 %1011.2 hPa16.1 kmENE (70°)29.6 km/hMostly Cloudy
8:07 AM26 °C23 °C83 %1011.2 hPa16.1 kmENE (70°)33.3 km/hMostly Cloudy
8:09 AM26 °C23 °C83 %1011.2 hPa16.1 kmENE (70°)29.6 km/hMostly Cloudy
8:10 AM26 °C23 °C83 %1011.2 hPa16.1 kmENE (70°)33.3 km/hMostly Cloudy
8:15 AM26 °C22 °C78 %1011.2 hPa16.1 kmENE (70°)31.5 km/hMostly Cloudy
8:21 AM26 °C22 °C78 %1011.2 hPa16.1 kmENE (70°)33.3 km/hMostly Cloudy
8:26 AM26 °C23 °C83 %1011.2 hPa16.1 kmENE (70°)33.3 km/h40.7 km/hMostly Cloudy
8:55 AM26.6 °C22.3 °C77 %1011.5 hPa16.1 kmENE (70°)35.2 km/h48.1 km/hMostly Cloudy
9:06 AM27 °C22 °C74 %1011.2 hPa16.1 kmENE (70°)37 km/h48.1 km/hScattered Clouds
9:26 AM27 °C23 °C79 %1011.2 hPa16.1 kmENE (70°)31.5 km/hMostly Cloudy
9:28 AM27 °C23 °C79 %1011.2 hPa16.1 kmENE (70°)33.3 km/h42.6 km/hScattered Clouds
9:37 AM28 °C24 °C79 %1011.5 hPa16.1 kmENE (70°)31.5 km/hMostly Cloudy
9:42 AM28 °C24 °C79 %1011.2 hPa16.1 kmENE (60°)27.8 km/hMostly Cloudy
9:44 AM28 °C24 °C79 %1011.2 hPa16.1 kmENE (70°)29.6 km/hMostly Cloudy
9:50 AM28 °C23 °C74 %1011.2 hPa16.1 kmENE (70°)33.3 km/h44.4 km/hScattered Clouds
9:55 AM28 °C23.5 °C76 %1011.2 hPa16.1 kmENE (70°)33.3 km/h44.4 km/hScattered Clouds
9:59 AM28 °C24 °C79 %1011.2 hPa16.1 kmEast (80°)35.2 km/hMostly Cloudy
10:10 AM27 °C24 °C84 %1011.2 hPa16.1 kmENE (70°)31.5 km/hMostly Cloudy
10:11 AM27 °C24 °C84 %1011.2 hPa16.1 kmENE (60°)29.6 km/hMostly Cloudy
10:12 AM27 °C24 °C84 %1011.2 hPa16.1 kmENE (70°)35.2 km/h46.3 km/hMostly Cloudy
10:55 AM28.1 °C23.3 °C75 %1010.8 hPa16.1 kmENE (70°)35.2 km/h48.1 km/hMostly Cloudy
11:55 AM28.2 °C22.4 °C71 %1010.2 hPa16.1 kmEast (80°)37 km/h53.8 km/hMostly Cloudy
11:57 AM28 °C22 °C70 %1010.2 hPa16.1 kmEast (80°)33.3 km/h53.8 km/hMostly Cloudy
12:08 PM28 °C23 °C74 %1010.2 hPa16.1 kmENE (70°)40.7 km/h50.1 km/hMostly Cloudy
12:16 PM28 °C23 °C74 %1010.2 hPa16.1 kmENE (70°)33.3 km/h51.8 km/hMostly Cloudy
12:23 PM28 °C23 °C74 %1009.8 hPa16.1 kmEast (80°)31.5 km/h48.1 km/hMostly Cloudy
12:33 PM28 °C23 °C74 %1009.8 hPa16.1 kmEast (80°)48.1 km/h57.5 km/hMostly Cloudy
12:40 PM26 °C23 °C83 %1009.8 hPa16.1 kmENE (70°)37 km/h57.5 km/hMostly Cloudy
12:55 PM26.8 °C23.1 °C80 %1009.8 hPa16.1 kmEast (80°)33.3 km/h44.4 km/hMostly Cloudy
1:06 PM28 °C24 °C79 %1009.5 hPa16.1 kmENE (70°)31.5 km/h42.6 km/hScattered Clouds
1:24 PM28 °C24 °C79 %1009.1 hPa16.1 kmEast (80°)35.2 km/h53.8 km/hMostly Cloudy
1:26 PM28 °C24 °C79 %1009.1 hPa16.1 kmENE (70°)42.6 km/h53.8 km/hMostly Cloudy
1:30 PM27 °C23 °C79 %1009.1 hPa9.7 kmEast (90°)40.7 km/h55.5 km/hHaze
1:31 PM26 °C23 °C83 %1009.1 hPa8 kmEast (90°)35.2 km/h55.5 km/hHaze
1:34 PM26 °C23 °C83 %1009.1 hPa6.4 kmEast (90°)29.6 km/h55.5 km/hHaze
1:40 PM25 °C23 °C89 %1009.1 hPa9.7 kmEast (80°)27.8 km/h37 km/hMostly Cloudy
1:55 PM26.8 °C23.5 °C82 %1008.8 hPa16.1 kmEast (80°)35.2 km/h44.4 km/hPartly Cloudy
2:11 PM27 °C23 °C79 %1008.5 hPa16.1 kmEast (80°)35.2 km/h44.4 km/hMostly Cloudy
2:55 PM27.4 °C23.4 °C79 %1008.5 hPa16.1 kmENE (70°)29.6 km/hMostly Cloudy
3:20 PM28 °C23 °C74 %1008.1 hPa16.1 kmEast (80°)35.2 km/h44.4 km/hMostly Cloudy
3:24 PM28 °C23 °C74 %1008.5 hPa16.1 kmEast (80°)33.3 km/h44.4 km/hScattered Clouds
3:25 PM28 °C23 °C74 %1008.1 hPa16.1 kmEast (80°)31.5 km/h44.4 km/hMostly Cloudy
3:30 PM28 °C23 °C74 %1008.1 hPa16.1 kmEast (80°)33.3 km/h44.4 km/hScattered Clouds
3:31 PM28 °C23 °C74 %1008.1 hPa16.1 kmEast (80°)35.2 km/hMostly Cloudy
3:45 PM27 °C23 °C79 %1008.5 hPa16.1 kmENE (60°)31.5 km/hMostly Cloudy
3:55 PM27.1 °C23.4 °C80 %1008.1 hPa16.1 kmENE (60°)29.6 km/hMostly Cloudy
4:33 PM27 °C23 °C79 %1008.1 hPa16.1 kmENE (60°)29.6 km/h38.9 km/hOvercast
4:36 PM27 °C23 °C79 %1008.5 hPa16.1 kmENE (70°)27.8 km/h38.9 km/hMostly Cloudy
4:38 PM27 °C23 °C79 %1008.5 hPa16.1 kmENE (70°)29.6 km/h38.9 km/hMostly Cloudy
4:49 PM27 °C23 °C79 %1008.5 hPa16.1 kmEast (80°)37 km/h46.3 km/hMostly Cloudy
4:55 PM26.6 °C21.9 °C75 %1008.5 hPa16.1 kmEast (80°)27.8 km/h46.3 km/hMostly Cloudy
5:35 PM26 °C23 °C83 %1008.5 hPa16.1 kmENE (70°)33.3 km/hMostly Cloudy
5:44 PM26 °C23 °C83 %1008.8 hPa14.5 kmEast (80°)44.4 km/h55.5 km/hLight Drizzle
5:47 PM26 °C24 °C89 %1008.8 hPa12.9 kmEast (80°)38.9 km/h55.5 km/hLight Drizzle
5:51 PM25 °C23 °C89 %1008.8 hPa12.9 kmENE (70°)42.6 km/h55.5 km/hLight Drizzle
5:54 PM25 °C23 °C89 %1009.1 hPa14.5 kmENE (70°)37 km/h51.8 km/hOvercast
5:55 PM24.5 °C22.9 °C91 %1009.1 hPa16.1 kmENE (70°)37 km/h51.8 km/h0 mmOvercast
6:01 PM24 °C23 °C94 %1009.1 hPa9.7 kmEast (80°)42.6 km/h51.8 km/hOvercast
6:02 PM24 °C23 °C94 %1009.1 hPa6.4 kmEast (80°)44.4 km/h51.8 km/hOvercast
6:06 PM24 °C23 °C94 %1009.1 hPa4 kmEast (80°)37 km/h50.1 km/hOvercast
6:08 PM24 °C23 °C94 %1009.1 hPa3.2 kmEast (80°)35.2 km/hOvercast
6:12 PM24 °C22 °C89 %1009.1 hPa4 kmEast (80°)25.9 km/hLight Drizzle
6:14 PM24 °C22 °C89 %1009.1 hPa4.8 kmEast (80°)22.2 km/hLight Drizzle
6:24 PM24 °C22 °C89 %1009.1 hPa16.1 kmEast (80°)18.5 km/hOvercast
6:25 PM24 °C22 °C89 %1009.1 hPa16.1 kmEast (80°)20.4 km/hOvercast
6:55 PM24.8 °C23 °C90 %1009.5 hPa16.1 kmENE (70°)29.6 km/h0 mmMostly Cloudy
6:57 PM25 °C23 °C89 %1009.5 hPa16.1 kmENE (70°)33.3 km/hMostly Cloudy
7:10 PM25 °C24 °C94 %1009.5 hPa16.1 kmENE (70°)22.2 km/hMostly Cloudy
7:15 PM25 °C24 °C94 %1009.5 hPa16.1 kmENE (60°)24.1 km/hOvercast
7:18 PM25 °C24 °C94 %1009.8 hPa16.1 kmENE (60°)24.1 km/hOvercast
7:20 PM25 °C24 °C94 %1009.8 hPa16.1 kmENE (70°)24.1 km/hOvercast
7:33 PM25 °C24 °C94 %1009.8 hPa16.1 kmENE (70°)29.6 km/hOvercast
7:42 PM25 °C24 °C94 %1009.8 hPa16.1 kmENE (70°)29.6 km/h37 km/hOvercast
7:50 PM25 °C24 °C94 %1009.8 hPa16.1 kmEast (80°)24.1 km/h37 km/hMostly Cloudy
7:55 PM25.2 °C23.6 °C91 %1009.8 hPa16.1 kmEast (80°)24.1 km/hMostly Cloudy
8:06 PM25 °C23 °C89 %1009.8 hPa16.1 kmEast (80°)24.1 km/hOvercast
8:19 PM25 °C23 °C89 %1010.2 hPa16.1 kmENE (70°)27.8 km/hMostly Cloudy
8:27 PM25 °C23 °C89 %1010.2 hPa16.1 kmEast (90°)27.8 km/h38.9 km/hMostly Cloudy
8:33 PM25 °C23 °C89 %1010.2 hPa16.1 kmEast (80°)22.2 km/hScattered Clouds
8:38 PM25 °C23 °C89 %1010.2 hPa16.1 kmEast (80°)24.1 km/hMostly Cloudy
8:50 PM25 °C23 °C89 %1010.2 hPa16.1 kmEast (80°)29.6 km/h42.6 km/hMostly Cloudy
8:53 PM25 °C23 °C89 %1010.2 hPa16.1 kmEast (90°)31.5 km/h42.6 km/hMostly Cloudy
8:55 PM25.3 °C22.6 °C85 %1010.5 hPa16.1 kmEast (80°)31.5 km/h44.4 km/hScattered Clouds
8:57 PM25 °C23 °C89 %1010.5 hPa16.1 kmEast (80°)25.9 km/h44.4 km/hMostly Cloudy
9:09 PM25 °C23 °C89 %1010.5 hPa16.1 kmEast (80°)29.6 km/h37 km/hMostly Cloudy
9:55 PM25.2 °C23.2 °C89 %1010.5 hPa16.1 kmEast (80°)25.9 km/hMostly Cloudy
10:07 PM25 °C23 °C89 %1010.5 hPa16.1 kmENE (70°)31.5 km/hMostly Cloudy
10:09 PM25 °C23 °C89 %1010.5 hPa16.1 kmEast (80°)27.8 km/hMostly Cloudy
10:22 PM25 °C23 °C89 %1010.8 hPa14.5 kmENE (70°)31.5 km/h44.4 km/hLight Drizzle
10:26 PM25 °C22 °C83 %1010.2 hPa14.5 kmENE (70°)20.4 km/h44.4 km/hLight Drizzle
10:28 PM25 °C22 °C83 %1010.5 hPa14.5 kmEast (80°)18.5 km/h44.4 km/hLight Drizzle
10:32 PM25 °C22 °C83 %1010.5 hPa14.5 kmEast (80°)22.2 km/hOvercast
10:55 PM24.9 °C21.5 °C81 %1010.5 hPa16.1 kmEast (80°)22.2 km/h0 mmMostly Cloudy
11:51 PM25 °C23 °C89 %1010.5 hPa16.1 kmENE (70°)25.9 km/hMostly Cloudy
11:55 PM25 °C23.1 °C89 %1010.2 hPa16.1 kmEast (80°)24.1 km/hMostly Cloudy
11:56 PM25 °C23 °C89 %1010.2 hPa16.1 kmENE (70°)22.2 km/hMostly Cloudy
Hourly data recorded from PGUA, located 0 kilometers away from Pyga Beach, Guam







STORIES FROM OUR PARTNERS